Regional Weather Roundup
Issued by NWS Charleston, SC

Current Version | Previous Version | Graphics & Text | Print | Product List | Glossary On
Versions: 1 2 3 4 5 6 7 8 9 10 11 12 13 14 15 16 17 18 19 20 21 22 23 24 25 26 27 28 29 30 31 32 33 34 35 36 37 38 39 40 41 42 43 44 45 46 47 48 49 50
000 ASUS42 KCHS 020612 RWRCHS REGIONAL WEATHER ROUNDUP NATIONAL WEATHER SERVICE CHARLESTON SC 100 AM EST FRI DEC 02 2016 NOTE: "FAIR" INDICATES FEW OR NO CLOUDS BELOW 12,000 FEET WITH NO SIGNIFICANT WEATHER AND/OR OBSTRUCTIONS TO VISIBILITY. NOT ALL STATIONS ARE QUALITY CONTROLLED. USE DATA WITH CAUTION... ESPECIALLY DEWPOINT OBSERVATIONS. SCZ027-030-031-034>040-042>050-020700- ...SOUTHEAST SOUTH CAROLINA... CITY SKY/WX TMP DP RH WIND PRES REMARKS N CHARLESTON CLEAR 49 37 63 W9 30.03S 6HR MIN TEMP: 48; 6HR MAX TEMP: 55; WATERFRONT PRK N/A 53 40 61 VRB2 30.01F MOUNT PLEASANT NOT AVBL JOHNS ISLAND FAIR 46 37 71 W7 30.03R PINOPOLIS N/A 52 43 71 W8 29.94F MONCKS CORNER FAIR 37 36 93 CALM 30.03R SUMMERVILLE FAIR 39 39 100 CALM 30.04S BEAUFORT MCAS CLEAR 50 38 63 W8 30.06R 6HR MIN TEMP: 47; 6HR MAX TEMP: 52; BEAUFORT ARPT FAIR 52 37 58 W9 30.05R HILTON HEAD IS CLEAR 52 36 54 VRB6G14 30.06R WALTERBORO CLEAR 41 N/A N/A W3 30.06R ALLENDALE FAIR 45 37 76 CALM 30.04S ...SOUTHERN MIDLANDS AND PEE DEE... CITY SKY/WX TMP DP RH WIND PRES REMARKS GEORGETOWN NOT AVBL KINGSTREE FAIR 37 34 87 CALM 30.02S ORANGEBURG CLEAR 45 35 68 NW3 30.03R 6HR MIN TEMP: 45; 6HR MAX TEMP: 55; BARNWELL NOT AVBL AIKEN FAIR 41 32 70 W3 30.07R MANNING NOT AVBL COLUMBIA CLEAR 45 33 63 W8 30.02R 6HR MIN TEMP: 45; 6HR MAX TEMP: 51; SUMTER CLEAR 47 33 57 NW8 30.00R 6HR MIN TEMP: 46; 6HR MAX TEMP: 53; FLORENCE CLEAR 48 37 65 NW6 30.01S 6HR MIN TEMP: 48; 6HR MAX TEMP: 57; MYRTLE BEACH CLEAR 46 39 76 W8 30.02F N MYRTLE BEACH NOT AVBL $$ GAZ063-065-086>088-099>101-113>116-118-119-134>141-150-020700- ...SOUTHEAST GEORGIA... CITY SKY/WX TMP DP RH WIND PRES REMARKS SAVANNAH ARPT CLEAR 48 36 63 NW6 30.07R 6HR MIN TEMP: 47; 6HR MAX TEMP: 55; HUNTER AAF CLEAR 47 40 76 NW7 30.04R 6HR MIN TEMP: 44; 6HR MAX TEMP: 52; FORT STEWART CLEAR 47 37 66 NW3 30.04S 6HR MIN TEMP: 44; 6HR MAX TEMP: 51; STATESBORO CLEAR 40 40 99 CALM 30.07S SYLVANIA CLEAR N/A N/A N/A CALM 30.07S CLAXTON FAIR N/A N/A N/A SW3 30.08S ...CSRA...CENTRAL AND FAR SOUTHEAST GEORGIA... CITY SKY/WX TMP DP RH WIND PRES REMARKS THOMSON CLEAR 43 37 80 CALM 30.10F AUGUSTA-BUSH CLEAR 45 32 60 NW7 30.05S 6HR MIN TEMP: 42; 6HR MAX TEMP: 55; AUGUSTA-DANIEL CLEAR 49 30 48 NW7 30.05S SWAINSBORO FAIR 41 34 75 NW5 30.08S VIDALIA CLEAR 48 37 66 NW5 30.08S EASTMAN FAIR 38 35 90 CALM 30.12S HAZLEHURST FAIR 46 40 82 NW5 30.08S ALMA CLEAR 44 38 79 NW5 30.08S 6HR MIN TEMP: 40; 6HR MAX TEMP: 50; WAYCROSS CLEAR 48 42 80 NW5 30.08S JESUP FAIR 48 41 76 NW7 30.08R BAXLEY FAIR 46 41 81 CALM 30.08S BRUNSWICK CLEAR 46 43 87 W3 30.08R SAINT SIMONS CLEAR 52 39 61 NW6 30.06R 6HR MIN TEMP: 51; 6HR MAX TEMP: 57; $$ SCZ027-028-034-036>038-045-046-048>050-GAZ119-141-020700- ...LAKE AND SUPPLEMENTAL COASTAL OBSERVATIONS... STATION/POSITION TIME TEMP WIND PRES WAVE SWELL AIR SEA DIR/SP/G HT/PER HT/PER/DIR (UTC) (F) (DEG/KT/KT) (MB) (FT/S) (FT/S/D) WINYAH BAY 0445 51 280/ 5 1015.0 LAKE MURRAY 0520 49 290/ 5/ 7 1016.3R ACE BASIN NERRS 0445 51 290/ 2 1017.0 FORT PULASKI 0548 54 64 310/ 15/ 18 1017.8R SAPELO ISLAND 0500 52 330/ 6 1018.0 $$ ANZ835-935-AMZ111-154-330-350-352-354-370-450-454-472-020700- ...C-MAN AND BUOY OBSERVATIONS... STATION/POSITION TIME TEMP WIND PRES WAVE SWELL AIR SEA DIR/SP/G HT/PER HT/PER/DIR (UTC) (F) (DEG/KT/KT) (MB) (FT/S) (FT/S/D) BUOY 41004 0550 62 75 310/ 17/ 19 1015.8R 5/ 5 2/140/ 8 BUOY 41008 0550 60 65 310/ 17/ 19 1017.3S 3/ 9 2/110/ 9 FOLLY BEACH CMAN 0500 52 300/ 5/ 8 1017.3R CAPERS NEARSHORE 0508 57 63 310/ 16/ 21 1016.2R FRIPP NEARSHORE 0508 58 63 330/ 12/ 16 1016.7F STATION/POSITION TIME TEMP WIND PRES WAVE SWELL AIR SEA DIR/SP/G HT/PER HT/PER/DIR (UTC) (F) (DEG/KT/KT) (MB) (FT/S) (FT/S/D) 5E ST. MARYS GA 0530 67 N/A 3/ 3 FRYING PAN BUOY 0550 63 75 300/ 16/ 21 1015.4R 5/ 8 3/170/ 8 BUOY 41025 0550 62 76 340/ 17/ 21 1013.8R 4/ 8 2/170/ 8 CAPE LOOKOUT NC 0500 57 340/ 7/ 7 1014.2R BUOY 41002 0550 74 74 270/ 17/ 21 1013.8F 7/ 8 BUOY 41010 NOT AVBL ST AUGUSTINE FL 0600 57 68 330/ 10/ 12 1018.4F $$

USA.gov is the U.S. government's official web portal to all federal, state and local government web resources and services.